{"data":{"norad_id":51742,"intl_designator":"2022-016AE","name":"STARLINK-3521","alt_names":[],"object_type":"PAYLOAD","status":"ACTIVE","operator":null,"country":"US","launch_date":"2022-02-21","launch_site_code":"AFETR","launch_vehicle":null,"mission":null,"orbit_class":"UNKNOWN","rcs_meters":null,"size_class":null,"mass_kg":null,"dimensions":null,"purposes":["comms"],"wikipedia_slug":null,"has_3d_model":false,"image_url":null,"decayed_at":null,"tle_current":{"epoch":"2026-09-19T22:45:34.746912Z","epoch_age_seconds":99571,"freshness":"FRESH","line1":"1 51742U 22016AE  26262.94831883  .00000322  00000+0  20670-4 0  9997","line2":"2 51742  53.1592 152.0881 0001225  91.8880 268.2263 15.34384611253099","mean_motion":15.34384611,"eccentricity":0.0001225,"inclination_deg":53.1592,"raan_deg":152.0881,"arg_perigee_deg":91.888,"mean_anomaly_deg":268.2263,"bstar":2.067e-5,"rev_number":25309,"period_min":93.848699320669,"perigee_km":461.91097140793,"apogee_km":463.58698847301,"semimajor_km":6840.8859799405,"source":"CELESTRAK","updated_at":"2026-09-20T09:00:39.931600Z"}}}